CZ-6A DEB, 58434

Orbit data source: Space-Track

CZ-6A DEB, 58434 is space debris in SSO originally from a launch on Fri, 11 Nov 2022 UTC launched from the Taiyaun Space Center, China (TSC). Debris objects in space refer to the collection of defunct objects orbiting the Earth. Examples of debris include non-operational satellites, rocket bodies, and fragments generated from explosions, collisions, or faulty payload assembly.

Loading next visibility...
Identifier
58434, 2022-151AJC
Orbit
SSO
Country
Flag of CNCN / PRC
Related business
Manufacturer
SAST
Mission
Spacecraft
Bus & Motor
Unknown
Mass
Unknown
Launch date (UTC)
2022-11-11 (4 years ago)
Launch vehicle
Unknown
Launch site
Taiyaun Space Center, China (TSC)
Object type
Payload
Rocket body
Debris
Shape & HBR
Unknown shape, 0.1 m
Radar Cross Section
Small (<0.1 m²)

Expand to show TLE details & history
Last TLE update: 1 week ago

TLE from 1 week ago
0 CZ-6A DEB
1 58434U 22151AJC 26226.37614428  .00000057  00000-0  36011-4 0  9995
2 58434  98.7049 268.6037 0103730 247.0999 111.9208 14.32666001171009
Epoch: 2026-08-14T09:01Z
TLE epoch observation values (Epoch: 2026-08-14T09:01:38.865Z)
Latitude
-0.00009°
Longitude
170.38951°
Altitude
814.161 km
Speed
7.431 km/s
True Right ascension
17h 54m 24s
True Declination
0° 00' 00"
Sunlit
Object was in full shadow at epoch
Visualization orbit readout
Latitude
Unknown
Longitude
Unknown
Altitude
Unknown
Speed
Unknown
Apparent Right ascension
Unknown
Apparent Declination
Unknown
Sunlit
N/A
Visualization observer readout
Local Sidereal Time
23:04:47
Azimuth
Unknown
Elevation
Unknown
Doppler factor
Unknown
Orbital elements
Apogee altitude
854.225 km
Perigee altitude
705.723 km
Semi-major axis
7,158.111 km
Eccentricity
0.01037
Inclination
98.7049°
RAAN
268.6037°
Arg. of periapsis
247.0999°
True anomaly
113.01814°
Mean anomaly
111.9208°
Eccentric anomaly
112.47001°
Mean motion
3.58381 °/min
Orbital period
100.45 mins
BSTAR
0.000036011
Loading maneuver chart data...
Computing Atmospheric mass density...
Loading historical data...
Loading historical data...
Loading historical data...
Loading historical data...
Loading historical data...
Loading historical data...
Loading historical data...

Documentation

Showing up to 5 results
|